Вернуться в каталог

STARLINK-37490

АктивенСвязьVLEO
NORAD 69525·PAYLOAD·🇺🇸 United States

Запущен Jun 12, 2026 с Cape Canaveral Space Force Station

Loading…

Ближайшие Пролёты (ближайшие 24 часа)

TLE

СвежийSource: CelesTrak SupGP

Эпоха: Sep 14, 2026, 21:34 UTC

1 69525C 26133T   26257.89909722  .00047488  00000+0  14034-2 0  2571
2 69525  53.1566 255.6637 0001234  86.5042  43.2531 15.34359356    17

Отслеживайте STARLINK-37490 в реальном времени с AllMySat

Download on the App Store